Waarnemingen

Advertentie
Mijn weer
Socoa, Frankrijk (7600): temperatuur & dauwpunt: 13.06.2018 02:00:00 - 19.06.2018 02:00:00 (CEST)Socoa, Frankrijk (7600): windsnelheid & windstoten: 13.06.2018 02:00:00 - 19.06.2018 02:00:00 (CEST)Socoa, Frankrijk (7600): windrichting: 13.06.2018 02:00:00 - 19.06.2018 02:00:00 (CEST)Socoa, Frankrijk (7600): luchtdruk: 13.06.2018 02:00:00 - 19.06.2018 02:00:00 (CEST)Socoa, Frankrijk (7600): zicht: 13.06.2018 02:00:00 - 19.06.2018 02:00:00 (CEST)Socoa, Frankrijk (7600): neerslag: 13.06.2018 02:00:00 - 19.06.2018 02:00:00 (CEST)
Datum & Tijd tt [°C] td [°C] ff [km/u] ff [kn] fx [km/u] fx [kn] dd ppp [hPa] vv [km] rr [mm]
19.06.2018 02:00:00 - - - - - - - - - -
19.06.2018 01:00:00 18,4 14,1 16 9 26 14 NW 1026,7 - 0,0
19.06.2018 00:00:00 18,3 14,8 19 11 26 14 NW 1027,0 - 0,0
18.06.2018 23:00:00 18,5 16,3 13 7 18 10 WNW 1027,2 11 0,0
18.06.2018 22:00:00 18,5 16,1 8 5 17 9 WNW 1026,9 - 0,0
18.06.2018 21:00:00 18,8 16,2 11 6 17 9 NW 1026,7 - 0,0
18.06.2018 20:00:00 19,2 16,6 12 6 27 14 NNW 1026,9 15 0,0
18.06.2018 19:00:00 19,4 16,8 21 11 28 15 NNW 1026,9 - 0,0
18.06.2018 18:00:00 21,3 16,7 16 9 24 13 NW 1027,1 - 0,0
18.06.2018 17:00:00 21,8 17,2 16 9 22 12 W 1027,2 20 0,0
18.06.2018 16:00:00 19,4 16,8 16 9 26 14 W 1027,3 - 0,0
18.06.2018 15:00:00 21,2 16,8 19 10 25 14 W 1027,4 - 0,0
18.06.2018 14:00:00 21,5 16,2 15 8 22 12 W 1027,5 20 0,0
18.06.2018 13:00:00 19,4 16,1 11 6 18 10 W 1027,8 - 0,0
18.06.2018 12:00:00 18,9 15,8 7 4 11 6 W 1027,8 - 0,0
18.06.2018 11:00:00 16,9 14,7 7 4 19 10 Z 1028,0 4,8 0,0
18.06.2018 10:00:00 17,4 13,1 10 5 15 8 ZW 1027,9 - 0,0
18.06.2018 09:00:00 17,2 13,3 10 5 16 8 ZW 1027,7 - 0,0
18.06.2018 08:00:00 16,4 13,1 7 4 12 7 ZZW 1027,3 15 0,0
18.06.2018 07:00:00 15,5 13,0 10 6 14 7 Z 1027,0 - 0,0
18.06.2018 06:00:00 15,4 12,9 9 5 13 7 Z 1026,8 - 0,0
18.06.2018 05:00:00 15,2 12,7 9 5 15 8 Z 1026,8 20 0,0
18.06.2018 04:00:00 14,5 12,4 13 7 15 8 Z 1026,9 - 0,0
18.06.2018 03:00:00 14,1 12,3 8 4 13 7 ZZW 1027,1 - 0,0
18.06.2018 02:00:00 14,2 12,2 11 6 16 8 Z 1027,1 - 0,0
18.06.2018 01:00:00 14,6 12,3 10 5 13 7 ZZW 1027,2 - 0,0
18.06.2018 00:00:00 15,4 12,5 8 4 13 7 ZZW 1027,7 - 0,0
17.06.2018 23:00:00 16,8 12,7 5 3 14 7 ZW 1027,2 25 0,0
17.06.2018 22:00:00 17,7 12,6 9 5 14 8 WNW 1026,8 - 0,0
17.06.2018 21:00:00 19,5 13,0 9 5 16 9 WNW 1026,6 - 0,0
17.06.2018 20:00:00 20,5 13,0 11 6 18 10 WNW 1026,5 25 0,0
17.06.2018 19:00:00 20,9 13,8 16 8 29 16 WNW 1026,4 - 0,0
17.06.2018 18:00:00 21,5 14,4 13 7 24 13 WNW 1026,1 - 0,0
17.06.2018 17:00:00 21,5 13,7 17 9 23 12 NW 1026,0 25 0,0
17.06.2018 16:00:00 21,3 14,9 16 8 28 15 NW 1026,0 - 0,0
17.06.2018 15:00:00 21,2 15,3 22 12 28 15 NW 1025,9 - 0,0
17.06.2018 14:00:00 21,2 15,7 20 11 27 15 W 1025,9 - 0,0
17.06.2018 13:00:00 21,3 15,8 15 8 20 11 W 1025,8 - 0,0
17.06.2018 12:00:00 20,7 15,3 8 4 15 8 W 1025,7 - 0,0
17.06.2018 11:00:00 19,5 15,6 9 5 16 9 W 1025,7 18 0,0
17.06.2018 10:00:00 17,1 14,7 9 5 15 8 WZW 1025,8 - 0,0
17.06.2018 09:00:00 16,4 14,9 8 4 16 9 WZW 1025,4 - 0,2
17.06.2018 08:00:00 15,6 14,3 10 6 21 11 WZW 1024,8 2,0 1,2
17.06.2018 07:00:00 15,6 13,4 13 7 23 12 ZW 1024,2 - 0,0
17.06.2018 06:00:00 15,1 13,0 3 2 12 7 OZO 1023,8 - 0,0
17.06.2018 05:00:00 14,6 12,6 9 5 13 7 ZZW 1023,6 20 0,0
17.06.2018 04:00:00 14,4 12,4 11 6 13 7 ZZW 1023,7 - 0,0
17.06.2018 03:00:00 14,0 12,0 11 6 13 7 ZZW 1023,7 - 0,0
17.06.2018 02:00:00 14,5 12,2 9 5 13 7 ZZW 1023,9 - 0,0
17.06.2018 01:00:00 15,5 12,1 9 5 13 7 ZZW 1024,0 - 0,0
17.06.2018 00:00:00 16,5 12,3 9 5 11 6 ZZW 1024,0 - 0,0
16.06.2018 23:00:00 17,8 12,0 9 5 14 7 WNW 1023,9 - 0,0
16.06.2018 22:00:00 18,0 11,8 10 5 17 9 NW 1023,1 - 0,0
16.06.2018 21:00:00 19,2 12,0 6 3 14 7 WNW 1022,6 - 0,0
16.06.2018 20:00:00 20,6 11,8 10 5 19 10 NNW 1022,5 30 0,0
16.06.2018 19:00:00 20,7 12,1 12 6 18 10 NNW 1021,9 - -
16.06.2018 18:00:00 21,6 11,9 11 6 16 9 NNW 1021,6 - 0,0
16.06.2018 17:00:00 21,9 11,9 8 4 13 7 NNW 1021,4 20 0,0
16.06.2018 16:00:00 21,7 12,3 11 6 18 10 NW 1021,7 - 0,0
16.06.2018 15:00:00 21,9 14,0 7 4 14 7 NW 1021,6 - 0,0
16.06.2018 14:00:00 21,4 14,1 9 5 17 9 NNW 1021,7 - 0,0
16.06.2018 13:00:00 20,7 12,7 4 2 13 7 ONO 1021,8 - 0,0
16.06.2018 12:00:00 18,5 12,3 10 5 22 12 NNW 1021,7 - 0,0
16.06.2018 11:00:00 17,7 11,9 9 5 27 15 N 1021,4 - 0,0
16.06.2018 10:00:00 17,4 12,7 17 9 34 19 NNW 1020,9 - 0,0
16.06.2018 09:00:00 17,1 13,4 24 13 32 17 N 1020,2 - 0,0
16.06.2018 08:00:00 17,5 14,0 14 8 22 12 NNW 1019,7 15 0,0
16.06.2018 07:00:00 17,4 14,1 14 8 24 13 NNW 1019,6 - 0,0
16.06.2018 06:00:00 17,3 14,2 16 9 24 13 NNW 1019,6 - 0,0
16.06.2018 05:00:00 17,3 14,4 17 9 23 12 NNW 1019,5 15 0,0
16.06.2018 04:00:00 17,3 14,9 12 7 21 11 NW 1019,6 - 0,0
16.06.2018 03:00:00 17,2 15,2 15 8 21 11 NW 1020,0 - 0,0
16.06.2018 02:00:00 17,1 16,0 8 4 11 6 WZW 1020,4 - 0,0
16.06.2018 01:00:00 17,3 16,0 3 2 10 5 ZZW 1020,5 - 0,0
16.06.2018 00:00:00 17,3 16,0 6 4 21 11 NNO 1020,6 - 0,0
15.06.2018 23:00:00 17,4 16,3 13 7 20 11 NW 1020,6 - 0,4
15.06.2018 22:00:00 17,6 16,5 8 4 11 6 W 1020,4 - 0,0
15.06.2018 21:00:00 17,7 16,6 9 5 15 8 WZW 1020,3 - 0,0
15.06.2018 20:00:00 17,6 16,5 12 7 19 10 W 1020,3 - 0,4
15.06.2018 19:00:00 17,9 16,6 11 6 15 8 W 1020,3 - 0,4
15.06.2018 18:00:00 17,6 16,1 8 4 14 7 WZW 1020,3 - 0,6
15.06.2018 17:00:00 17,3 15,5 10 5 22 12 WZW 1020,6 0,9 0,2
15.06.2018 16:00:00 17,9 15,2 15 8 25 13 W 1020,9 - 0,2
15.06.2018 15:00:00 19,0 14,3 16 9 26 14 WNW 1020,4 - 0,0
15.06.2018 14:00:00 19,7 14,1 16 8 24 13 WNW 1020,2 - 0,0
15.06.2018 13:00:00 19,0 13,4 20 11 25 14 W 1020,2 - 0,0
15.06.2018 12:00:00 19,2 13,6 10 6 14 8 W 1020,2 - 0,0
15.06.2018 11:00:00 18,9 13,5 6 4 11 6 W 1020,2 20 0,0
15.06.2018 10:00:00 16,8 13,5 5 3 10 5 ZZW 1020,2 - 0,0
15.06.2018 09:00:00 14,7 12,9 9 5 12 6 Z 1020,2 - 0,0
15.06.2018 08:00:00 13,3 12,0 9 5 16 9 Z 1020,0 20 0,0
15.06.2018 07:00:00 12,3 11,0 11 6 13 7 Z 1019,7 - 0,0
15.06.2018 06:00:00 12,4 11,0 8 5 11 6 Z 1019,6 - 0,0
15.06.2018 05:00:00 12,8 11,2 10 5 16 9 Z 1019,5 20 0,0
15.06.2018 04:00:00 13,0 11,4 9 5 13 7 Z 1020,0 - 0,0
15.06.2018 03:00:00 13,4 11,8 10 5 12 7 Z 1020,3 - 0,0
15.06.2018 02:00:00 13,4 11,8 6 3 11 6 Z 1020,7 - 0,0
15.06.2018 01:00:00 13,8 11,8 9 5 13 7 Z 1020,8 - 0,0
15.06.2018 00:00:00 14,7 12,6 7 4 10 6 Z 1020,9 - 0,0
14.06.2018 23:00:00 15,6 12,9 8 4 10 5 Z 1021,0 25 0,0
14.06.2018 22:00:00 17,1 12,6 0 0 7 4 N 1020,8 - 0,0
14.06.2018 21:00:00 18,9 12,9 3 1 14 7 N 1020,7 - 0,0
14.06.2018 20:00:00 20,3 12,8 8 4 17 9 WNW 1020,9 25 0,0
14.06.2018 19:00:00 20,8 14,0 12 7 25 14 WNW 1020,7 - 0,0
14.06.2018 18:00:00 20,3 13,0 18 10 27 14 WNW 1020,9 - 0,0
14.06.2018 17:00:00 19,8 13,9 18 10 27 15 WNW 1021,2 - 0,0
14.06.2018 16:00:00 21,3 14,2 16 9 27 15 WNW 1021,3 - 0,0
14.06.2018 15:00:00 20,5 13,9 18 10 27 14 WNW 1021,5 - 0,0
14.06.2018 14:00:00 20,2 13,6 19 11 30 16 WNW 1021,8 - 0,0
14.06.2018 13:00:00 18,9 13,3 22 12 32 17 NW 1021,7 - 0,0
14.06.2018 12:00:00 18,9 14,0 22 12 32 18 WNW 1021,5 - 0,0
14.06.2018 11:00:00 17,8 13,5 18 10 26 14 WNW 1021,3 20 0,0
14.06.2018 10:00:00 17,9 13,4 16 9 25 14 WNW 1021,2 - 0,0
14.06.2018 09:00:00 17,2 13,1 18 10 27 14 WNW 1021,1 - 0,0
14.06.2018 08:00:00 16,2 13,1 14 8 25 13 WZW 1020,8 20 0,0
14.06.2018 07:00:00 15,2 12,5 11 6 19 10 WZW 1021,0 - 0,0
14.06.2018 06:00:00 16,3 12,6 13 7 25 14 WNW 1020,8 - 0,0
14.06.2018 05:00:00 16,4 12,9 21 11 29 16 WNW 1020,9 20 0,0
14.06.2018 04:00:00 16,5 12,8 23 12 32 18 WNW 1021,4 - 0,0
14.06.2018 03:00:00 16,6 13,5 26 14 33 18 W 1021,6 - 0,0
14.06.2018 02:00:00 16,8 13,7 24 13 34 18 WNW 1022,1 - 0,0
14.06.2018 01:00:00 16,9 13,8 28 15 38 20 W 1022,3 - 0,0
14.06.2018 00:00:00 17,0 13,9 29 16 36 19 WNW 1022,5 - 0,0
13.06.2018 23:00:00 16,9 14,2 31 17 41 22 W 1022,2 15 0,0
13.06.2018 22:00:00 17,1 14,4 29 16 39 21 W 1022,0 - 0,0
13.06.2018 21:00:00 17,1 14,4 29 16 42 23 W 1021,9 - 0,0
13.06.2018 20:00:00 17,4 14,3 29 16 47 25 WNW 1021,8 - 0,0
13.06.2018 19:00:00 17,7 14,6 38 21 52 28 WNW 1021,4 - 0,0
13.06.2018 18:00:00 17,5 14,2 41 22 51 27 WNW 1021,8 - 0,0
13.06.2018 17:00:00 17,7 14,4 39 21 52 28 WNW 1022,1 - 0,0
13.06.2018 16:00:00 17,3 14,0 39 21 52 28 W 1022,0 - 0,0
13.06.2018 15:00:00 17,4 13,9 42 23 55 30 W 1021,9 - 0,0
13.06.2018 14:00:00 17,2 13,9 44 24 55 30 W 1021,9 - 0,0
13.06.2018 13:00:00 17,5 13,6 47 26 61 33 W 1021,6 - 0,0
13.06.2018 12:00:00 17,1 14,0 48 26 62 33 WNW 1021,5 - 0,0
13.06.2018 11:00:00 16,4 14,4 47 26 63 34 WNW 1021,1 8 0,4
13.06.2018 10:00:00 16,4 14,2 50 27 66 35 WNW 1020,8 - 0,8
13.06.2018 09:00:00 16,5 14,1 51 28 64 35 WNW 1020,4 - 0,2
13.06.2018 08:00:00 17,1 14,2 50 27 65 35 W 1020,2 - 0,0
13.06.2018 07:00:00 17,1 14,0 49 26 66 36 WNW 1019,9 - 0,0
13.06.2018 06:00:00 17,1 14,2 49 26 66 36 WNW 1019,5 - 0,0
13.06.2018 05:00:00 17,0 14,5 55 30 72 39 WNW 1019,5 - 0,2
13.06.2018 04:00:00 17,0 14,8 55 30 69 38 WNW 1019,1 - 0,0
13.06.2018 03:00:00 16,9 15,1 50 27 68 37 W 1019,3 - 0,4
13.06.2018 02:00:00 16,9 15,2 50 27 70 38 W 1019,4 2,0 0,8

tt = temperatuur
td = dauwpunt
ff = windsnelheid
fx = windstoten
dd = windrichting
ppp = luchtdruk
vv = zicht
rr = neerslag

Weerstations in de omgeving